TimeMDT,TemperatureF,Dew PointF,Humidity,Sea Level PressureIn,VisibilityMPH,Wind Direction,Wind SpeedMPH,Gust SpeedMPH,PrecipitationIn,Events,Conditions,WindDirDegrees,DateUTC
12:53 AM,66.9,57.9,73,29.74,10.0,ENE,4.6,-,0.00,,Clear,70,2013-07-06 06:53:00
1:53 AM,64.9,55.0,70,29.72,10.0,West,5.8,-,N/A,,Clear,270,2013-07-06 07:53:00
2:53 AM,64.9,55.9,73,29.73,10.0,East,3.5,-,N/A,,Clear,90,2013-07-06 08:53:00
3:53 AM,61.0,55.9,83,29.77,10.0,Calm,Calm,-,N/A,,Clear,0,2013-07-06 09:53:00
4:53 AM,61.0,55.9,83,29.77,10.0,East,4.6,-,N/A,,Clear,100,2013-07-06 10:53:00
5:53 AM,60.1,54.0,80,29.80,10.0,SE,3.5,-,N/A,,Clear,140,2013-07-06 11:53:00
6:53 AM,61.0,54.0,78,29.81,10.0,Calm,Calm,-,N/A,,Clear,0,2013-07-06 12:53:00
7:53 AM,66.9,55.0,66,29.81,10.0,Calm,Calm,-,N/A,,Mostly Cloudy,0,2013-07-06 13:53:00
8:53 AM,70.0,55.9,61,29.83,10.0,Calm,Calm,-,N/A,,Clear,0,2013-07-06 14:53:00
9:53 AM,73.0,54.0,51,29.82,10.0,Calm,Calm,-,N/A,,Clear,0,2013-07-06 15:53:00
10:53 AM,78.1,50.0,37,29.82,10.0,South,3.5,-,N/A,,Clear,170,2013-07-06 16:53:00
11:53 AM,80.1,48.9,34,29.81,10.0,South,4.6,-,N/A,,Clear,180,2013-07-06 17:53:00
12:53 PM,86.0,48.0,27,29.79,10.0,Variable,3.5,-,N/A,,Clear,0,2013-07-06 18:53:00
1:53 PM,84.9,43.0,23,29.79,10.0,SSW,3.5,-,N/A,,Clear,200,2013-07-06 19:53:00
2:53 PM,87.1,42.1,21,29.76,10.0,Calm,Calm,-,N/A,,Clear,0,2013-07-06 20:53:00
3:53 PM,89.1,39.9,18,29.74,10.0,Calm,Calm,-,N/A,,Clear,0,2013-07-06 21:53:00
4:53 PM,87.1,37.9,18,29.74,10.0,WSW,6.9,-,N/A,,Partly Cloudy,250,2013-07-06 22:53:00
5:09 PM,87.8,39.2,18,29.87,10.0,West,9.2,-,N/A,Thunderstorm,Mostly Cloudy,260,2013-07-06 23:09:00
5:20 PM,71.6,55.4,57,29.90,6.0,WSW,36.8,47.2,0.02,Rain-Thunderstorm,Light Thunderstorms and Rain,250,2013-07-06 23:20:00
5:26 PM,66.2,57.2,73,29.94,1.8,WSW,33.4,47.2,0.12,Rain-Thunderstorm,Heavy Thunderstorms and Rain,250,2013-07-06 23:26:00
5:37 PM,69.8,57.2,64,29.93,3.0,SW,15.0,-,0.19,Rain-Thunderstorm,Thunderstorms and Rain,220,2013-07-06 23:37:00
5:53 PM,72.0,57.9,61,29.85,10.0,SW,12.7,-,0.21,Rain-Thunderstorm,Light Rain,230,2013-07-06 23:53:00
6:09 PM,73.4,55.4,53,29.92,10.0,SE,10.4,-,0.00,,Scattered Clouds,140,2013-07-07 00:09:00
6:53 PM,73.0,53.1,49,29.82,10.0,East,15.0,25.3,0.00,,Clear,100,2013-07-07 00:53:00
7:53 PM,70.0,52.0,53,29.80,10.0,ESE,9.2,-,N/A,,Clear,110,2013-07-07 01:53:00
8:53 PM,71.1,51.1,49,29.79,10.0,SE,4.6,-,N/A,,Clear,130,2013-07-07 02:53:00
9:53 PM,69.1,55.9,63,29.86,10.0,NW,9.2,-,N/A,,Partly Cloudy,310,2013-07-07 03:53:00
10:53 PM,70.0,53.1,55,29.88,10.0,NW,5.8,-,N/A,,Scattered Clouds,310,2013-07-07 04:53:00
11:53 PM,69.1,53.1,57,29.88,10.0,Calm,Calm,-,N/A,,Overcast,0,2013-07-07 05:53:00